GW2194 Weather Reports


Display with metric or nautical units.
time (UTC)temp
F
wind
direction
speed
MPH
gust
MPH
rain 1hr
in
rain 24hr
in
rain mn
in
humidity
%
barometer
mb
20260904032340 69 235 2.0 3.0 0.00 0.56 0.56 93 1023.5
20260904031834 69 290 1.0 2.0 0.26 0.56 0.56 92 1023.3
20260904031330 69 245 6.0 11.0 0.92 0.56 0.56 92 1023.7
20260904030826 69 257 5.0 8.0 2.01 0.48 0.48 92 1023.3
20260904030321 69 7 5.0 6.0 1.11 0.24 0.24 91 1023.3
20260904025817 70 28 8.0 13.0 0.69 0.13 0.13 89 1023.9
20260904025313 72 353 11.0 13.0 0.24 0.04 0.04 86 1023.0
20260904024813 74 9 8.0 22.0 0.02 0.01 0.01 81 1023.4
20260904024308 74 337 9.0 18.0 0.00 0.00 0.00 91 1023.5
20260904023805 73 19 7.0 7.0 0.00 0.00 0.00 96 1022.7
20260904023300 73 309 0.0 1.0 0.00 0.00 0.00 96 1022.0
20260904022759 73 325 2.0 2.0 0.00 0.00 0.00 96 1022.0
20260904022256 73 336 2.0 2.0 0.00 0.00 0.00 96 1021.8
20260904021752 73 309 0.0 0.0 0.00 0.00 0.00 96 1021.1
20260904021247 73 50 0.0 0.0 0.00 0.00 0.00 96 1021.4
20260904020743 73 343 0.0 2.0 0.00 0.00 0.00 96 1021.2
20260904020242 73 336 3.0 3.0 0.00 0.00 0.00 96 1021.2
20260904015741 73 342 2.0 2.0 0.00 0.00 0.00 96 1021.0
20260904015237 73 229 0.0 1.0 0.00 0.00 0.00 95 1021.1
20260904014735 73 235 1.0 1.0 0.00 0.00 0.00 95 1021.3
20260904014230 73 297 0.0 0.0 0.00 0.00 0.00 95 1021.3
20260904013726 73 321 0.0 0.0 0.00 0.00 0.00 95 1021.7
20260904013222 73 326 1.0 1.0 0.00 0.00 0.00 95 1021.4
20260904012718 73 326 0.0 0.0 0.00 0.00 0.00 95 1021.2
20260904012217 73 309 0.0 0.0 0.00 0.00 0.00 95 1021.0
20260904011716 73 336 0.0 2.0 0.00 0.00 0.00 95 1021.1
20260904011212 73 338 2.0 2.0 0.00 0.00 0.00 95 1020.8
20260904010707 73 326 0.0 2.0 0.00 0.00 0.00 95 1020.6
20260904010204 74 55 0.0 0.0 0.00 0.00 0.00 94 1020.4
20260904005659 74 226 0.0 1.0 0.00 0.00 0.00 94 1020.5
20260904005155 74 269 0.0 0.0 0.00 0.00 0.00 94 1020.6
20260904004649 74 269 0.0 0.0 0.00 0.00 0.00 94 1020.5
20260904004143 74 269 0.0 0.0 0.00 0.00 0.00 93 1020.8
20260904003639 74 269 0.0 0.0 0.00 0.00 0.00 93 1020.4
20260904003136 74 322 0.0 0.0 0.00 0.00 0.00 92 1020.4
20260904002631 74 235 0.0 0.0 0.00 0.00 0.00 92 1020.5
20260904002132 75 230 0.0 0.0 0.00 0.00 0.00 92 1020.6
20260904001627 75 222 1.0 2.0 0.00 0.00 0.00 91 1020.6
20260904001125 75 336 0.0 0.0 0.00 0.00 0.00 89 1020.6
20260904000621 75 309 0.0 0.0 0.00 0.00 0.00 89 1020.9
20260904000117 76 333 0.0 0.0 0.00 0.00 0.00 88 1021.0
20260903235616 76 333 0.0 0.0 0.00 0.00 0.00 87 1021.0
20260903235113 76 333 0.0 0.0 0.00 0.00 0.00 86 1021.1
20260903234607 77 333 0.0 0.0 0.00 0.00 0.00 86 1021.0
20260903234103 77 333 0.0 1.0 0.00 0.00 0.00 85 1021.0
20260903233559 78 297 0.0 0.0 0.00 0.00 0.00 84 1021.1
20260903233054 78 297 0.0 0.0 0.00 0.00 0.00 82 1020.8
20260903232549 78 309 0.0 1.0 0.00 0.00 0.00 81 1021.0
20260903232044 78 304 0.0 0.0 0.00 0.00 0.00 81 1020.8
20260903231539 79 269 0.0 2.0 0.00 0.00 0.00 80 1021.0
20260903231033 79 271 2.0 2.0 0.00 0.00 0.00 78 1020.9
20260903230530 79 268 1.0 2.0 0.00 0.00 0.00 78 1021.0
20260903230028 79 297 0.0 1.0 0.00 0.00 0.00 78 1020.8
20260903225526 79 253 1.0 2.0 0.00 0.00 0.00 78 1020.7
20260903225022 79 256 1.0 2.0 0.00 0.00 0.00 77 1020.7
20260903224518 79 236 3.0 4.0 0.00 0.00 0.00 77 1020.5
20260903224014 79 239 2.0 3.0 0.00 0.00 0.00 75 1020.4
20260903223513 79 247 2.0 3.0 0.00 0.00 0.00 74 1020.4
20260903223012 79 287 0.0 1.0 0.00 0.00 0.00 74 1020.7
20260903222507 80 225 3.0 4.0 0.00 0.00 0.00 75 1020.6
20260903222006 79 246 1.0 1.0 0.00 0.00 0.00 75 1020.3
20260903221501 79 236 1.0 2.0 0.00 0.00 0.00 75 1020.0
20260903220958 79 212 2.0 3.0 0.00 0.00 0.00 74 1020.3
20260903220453 79 237 0.0 3.0 0.00 0.00 0.00 73 1020.1
20260903215950 80 265 2.0 3.0 0.00 0.00 0.00 72 1019.7
20260903215447 80 262 1.0 3.0 0.00 0.00 0.00 71 1019.6
20260903214945 80 255 0.0 2.0 0.00 0.00 0.00 70 1019.7
20260903214441 81 129 0.0 1.0 0.00 0.00 0.00 68 1019.6
20260903213941 82 255 0.0 0.0 0.00 0.00 0.00 68 1020.0
20260903213436 82 314 0.0 3.0 0.00 0.00 0.00 66 1020.0
20260903212932 84 247 4.0 5.0 0.00 0.00 0.00 60 1019.7
20260903212428 84 247 3.0 4.0 0.00 0.00 0.00 60 1019.7
20260903211922 84 231 3.0 6.0 0.00 0.00 0.00 59 1019.9
20260903211418 84 243 3.0 5.0 0.00 0.00 0.00 60 1019.7
20260903210914 84 231 3.0 5.0 0.00 0.00 0.00 59 1019.9
20260903210413 84 249 2.0 4.0 0.00 0.00 0.00 58 1019.6
20260903205909 83 225 2.0 5.0 0.00 0.00 0.00 60 1019.9
20260903205408 83 224 3.0 3.0 0.00 0.00 0.00 59 1020.0
20260903204903 82 240 0.0 1.0 0.00 0.00 0.00 61 1019.9
20260903204359 81 183 0.0 4.0 0.00 0.00 0.00 65 1020.4
20260903203854 83 246 2.0 5.0 0.00 0.00 0.00 70 1020.0
20260903203350 83 193 1.0 7.0 0.00 0.00 0.00 67 1020.6
20260903202849 84 231 1.0 4.0 0.00 0.00 0.00 69 1020.7
20260903202346 83 209 2.0 4.0 0.00 0.00 0.00 69 1020.4
20260903201845 84 230 2.0 4.0 0.00 0.00 0.00 71 1020.9
20260903201341 85 222 3.0 4.0 0.00 0.00 0.00 72 1020.7
20260903200839 84 224 2.0 3.0 0.00 0.00 0.00 73 1020.8
20260903200335 81 333 1.0 2.0 0.00 0.00 0.00 75 1020.8
20260903195830 82 47 2.0 2.0 0.00 0.00 0.00 75 1020.5
20260903195326 82 62 0.0 0.0 0.00 0.00 0.00 75 1020.7
20260903194821 82 347 1.0 2.0 0.00 0.00 0.00 74 1020.7
20260903194316 83 345 0.0 2.0 0.00 0.00 0.00 72 1020.8
20260903193812 84 32 0.0 0.0 0.00 0.00 0.00 69 1020.8
20260903193308 85 142 0.0 1.0 0.00 0.00 0.00 65 1020.9
20260903192802 86 230 0.0 1.0 0.00 0.00 0.00 61 1020.9
20260903192253 87 234 3.0 4.0 0.00 0.00 0.00 57 1021.1
20260903191749 88 262 0.0 2.0 0.00 0.00 0.00 55 1021.0
20260903191244 88 274 3.0 4.0 0.00 0.00 0.00 58 1021.2
20260903190739 87 235 2.0 3.0 0.00 0.00 0.00 60 1021.1
20260903190238 86 271 1.0 4.0 0.00 0.00 0.00 63 1021.2
20260903185733 86 185 0.0 2.0 0.00 0.00 0.00 59 1021.4
20260903185228 87 349 1.0 3.0 0.00 0.00 0.00 60 1021.6
20260903184725 86 246 1.0 6.0 0.00 0.00 0.00 62 1021.7
20260903184220 87 201 3.0 6.0 0.00 0.00 0.00 57 1021.6
20260903183721 86 310 3.0 4.0 0.00 0.00 0.00 61 1021.4
20260903183215 86 256 1.0 3.0 0.00 0.00 0.00 62 1021.7
20260903182713 87 278 1.0 4.0 0.00 0.00 0.00 66 1021.6
20260903182209 85 233 0.0 6.0 0.00 0.00 0.00 67 1021.7
20260903181707 85 248 3.0 7.0 0.00 0.00 0.00 66 1021.7
20260903181202 85 242 2.0 2.0 0.00 0.00 0.00 65 1021.7
20260903180658 86 0 3.0 3.0 0.00 0.00 0.00 65 1021.7
20260903180152 86 273 2.0 4.0 0.00 0.00 0.00 64 1021.7
20260903175651 86 312 0.0 3.0 0.00 0.00 0.00 64 1021.7
20260903175151 87 301 2.0 2.0 0.00 0.00 0.00 60 1021.9
20260903174645 87 319 3.0 5.0 0.00 0.00 0.00 59 1022.1
20260903174141 87 290 2.0 5.0 0.00 0.00 0.00 61 1022.2
20260903173635 87 331 2.0 5.0 0.00 0.00 0.00 63 1022.0
20260903173132 87 305 0.0 4.0 0.00 0.00 0.00 61 1021.8
20260903172631 87 287 4.0 5.0 0.00 0.00 0.00 65 1021.9
20260903172127 85 295 1.0 4.0 0.00 0.00 0.00 68 1022.2
20260903171626 84 72 3.0 5.0 0.00 0.00 0.00 66 1022.0
20260903171122 83 79 5.0 5.0 0.00 0.00 0.00 69 1022.0
20260903170621 82 21 4.0 6.0 0.00 0.00 0.00 69 1022.5
20260903170117 83 25 3.0 8.0 0.00 0.00 0.00 69 1022.5
20260903165614 83 21 6.0 7.0 0.00 0.00 0.00 69 1022.5
20260903165110 84 60 4.0 8.0 0.00 0.00 0.00 68 1022.3
20260903164604 85 340 2.0 6.0 0.00 0.00 0.00 65 1022.2
20260903164100 85 7 3.0 5.0 0.00 0.00 0.00 64 1022.6
20260903163555 85 2 5.0 10.0 0.00 0.00 0.00 63 1022.5
20260903163051 86 0 4.0 7.0 0.00 0.00 0.00 62 1022.3
20260903162547 87 61 4.0 8.0 0.00 0.00 0.00 58 1022.3
20260903162042 87 336 3.0 6.0 0.00 0.00 0.00 59 1022.3
20260903161537 87 336 0.0 4.0 0.00 0.00 0.00 60 1022.6
20260903161028 87 240 3.0 6.0 0.00 0.00 0.00 59 1022.3
20260903160527 87 30 1.0 5.0 0.00 0.00 0.00 60 1022.5
20260903160021 88 230 10.0 11.0 0.00 0.00 0.00 61 1022.3
20260903155515 86 313 2.0 3.0 0.00 0.00 0.00 63 1022.8
20260903155010 85 277 1.0 3.0 0.00 0.00 0.00 64 1022.3
20260903154507 85 284 2.0 3.0 0.00 0.00 0.00 66 1022.7
20260903154003 84 282 3.0 5.0 0.00 0.00 0.00 68 1022.8
20260903153457 85 268 2.0 5.0 0.00 0.00 0.00 66 1022.8
20260903152953 83 317 1.0 2.0 0.00 0.00 0.00 71 1022.8
20260903152449 83 154 0.0 2.0 0.00 0.00 0.00 70 1022.8
20260903151944 82 269 0.0 0.0 0.00 0.00 0.00 75 1022.8
20260903151438 80 249 0.0 2.0 0.00 0.00 0.00 82 1022.8
20260903150933 79 25 0.0 3.0 0.00 0.00 0.00 80 1022.9
20260903150422 79 67 1.0 2.0 0.00 0.00 0.00 78 1023.1
20260903145917 78 336 0.0 1.0 0.00 0.00 0.00 79 1022.8
20260903145412 76 62 0.0 0.0 0.00 0.00 0.00 81 1023.0
20260903144912 76 341 0.0 0.0 0.00 0.00 0.00 84 1023.3
20260903144401 76 339 1.0 3.0 0.00 0.00 0.00 84 1023.1
20260903143856 75 51 1.0 3.0 0.00 0.00 0.00 85 1023.3
20260903143353 73 78 1.0 2.0 0.00 0.00 0.00 87 1023.0
20260903142848 74 55 1.0 1.0 0.00 0.00 0.00 87 1022.8
20260903142344 73 73 0.0 1.0 0.00 0.00 0.00 88 1023.0
20260903141840 73 54 2.0 2.0 0.00 0.00 0.00 88 1023.1
20260903141335 72 15 0.0 1.0 0.00 0.00 0.00 89 1023.0
20260903140830 72 43 0.0 1.0 0.00 0.00 0.00 90 1022.8
20260903140325 72 340 0.0 1.0 0.00 0.00 0.00 92 1023.0
20260903135821 71 48 0.0 1.0 0.00 0.00 0.00 94 1023.1
20260903135317 71 56 1.0 1.0 0.00 0.00 0.00 97 1023.1
20260903134815 70 63 0.0 2.0 0.00 0.00 0.00 97 1022.9
20260903134311 70 6 1.0 2.0 0.00 0.00 0.00 97 1023.0
20260903133808 70 21 0.0 2.0 0.00 0.00 0.00 97 1023.1
20260903133304 70 29 1.0 2.0 0.00 0.00 0.00 97 1023.2
20260903132758 69 5 0.0 0.0 0.00 0.00 0.00 97 1023.1
20260903132254 69 279 0.0 2.0 0.00 0.00 0.00 97 1023.2
20260903131749 68 304 0.0 2.0 0.00 0.00 0.00 97 1023.2
20260903131248 68 269 0.0 1.0 0.00 0.00 0.00 97 1023.5
20260903130743 68 102 0.0 0.0 0.00 0.00 0.00 97 1023.5
20260903130238 68 217 0.0 0.0 0.00 0.00 0.00 97 1023.5
20260903125736 68 235 0.0 1.0 0.00 0.00 0.00 97 1023.7
20260903125232 68 243 0.0 1.0 0.00 0.00 0.00 97 1023.6
20260903124731 68 309 0.0 2.0 0.00 0.00 0.00 97 1023.7
20260903124226 68 309 0.0 0.0 0.00 0.00 0.00 97 1023.7
20260903123725 68 309 0.0 0.0 0.00 0.00 0.00 97 1023.5
20260903123224 68 269 0.0 0.0 0.00 0.00 0.00 97 1023.7
20260903122723 67 269 0.0 0.0 0.00 0.00 0.00 97 1023.7
20260903122218 67 235 0.0 0.0 0.00 0.00 0.00 97 1023.5
20260903121716 67 220 0.0 1.0 0.00 0.00 0.00 97 1023.7
20260903121213 67 326 0.0 0.0 0.00 0.00 0.00 97 1023.6
20260903120712 67 309 0.0 0.0 0.00 0.00 0.00 97 1023.8
20260903120207 67 302 0.0 1.0 0.00 0.00 0.00 97 1023.7
20260903115705 67 326 0.0 0.0 0.00 0.00 0.00 97 1023.6
20260903115201 67 309 0.0 0.0 0.00 0.00 0.00 97 1023.8
20260903114655 66 269 0.0 0.0 0.00 0.00 0.00 97 1023.5
20260903114150 67 269 0.0 1.0 0.00 0.00 0.00 97 1023.6
20260903113646 66 304 0.0 1.0 0.00 0.00 0.00 97 1023.5
20260903113142 66 318 0.0 1.0 0.00 0.00 0.00 97 1023.6
20260903112637 66 50 0.0 0.0 0.00 0.00 0.00 97 1023.5
20260903112132 66 345 0.0 1.0 0.00 0.00 0.00 97 1023.5
20260903111631 66 306 0.0 0.0 0.00 0.00 0.00 97 1023.5
20260903111127 66 230 0.0 0.0 0.00 0.00 0.00 97 1023.3
20260903110622 66 230 0.0 0.0 0.00 0.00 0.00 97 1023.1
20260903110117 67 293 0.0 1.0 0.00 0.00 0.00 97 1023.1
20260903105607 67 336 0.0 0.0 0.00 0.00 0.00 97 1023.1
20260903105101 67 306 0.0 1.0 0.00 0.00 0.00 97 1022.7
20260903104556 67 10 2.0 2.0 0.00 0.00 0.00 97 1022.9
20260903104051 67 3 0.0 1.0 0.00 0.00 0.00 97 1023.0
20260903103547 67 352 0.0 1.0 0.00 0.00 0.00 97 1022.6
20260903103043 67 0 0.0 0.0 0.00 0.00 0.00 97 1022.8
20260903102539 67 0 0.0 0.0 0.00 0.00 0.00 97 1022.6
20260903102037 67 22 0.0 1.0 0.00 0.00 0.00 97 1022.6
20260903101531 67 22 0.0 0.0 0.00 0.00 0.00 97 1022.7
20260903101022 67 22 0.0 0.0 0.00 0.00 0.00 97 1022.6
20260903100517 67 22 0.0 0.0 0.00 0.00 0.00 97 1022.7
20260903100015 67 22 0.0 0.0 0.00 0.00 0.00 97 1022.6
20260903095514 67 22 0.0 0.0 0.00 0.00 0.00 97 1022.7
20260903095009 67 22 0.0 0.0 0.00 0.00 0.00 97 1022.5
20260903094508 67 22 0.0 0.0 0.00 0.00 0.00 97 1022.7
20260903094004 67 309 0.0 0.0 0.00 0.00 0.00 97 1022.7
20260903093504 67 309 0.0 0.0 0.00 0.00 0.00 97 1022.6
20260903093000 67 309 0.0 0.0 0.00 0.00 0.00 97 1022.5
20260903092459 67 309 0.0 0.0 0.00 0.00 0.00 97 1022.5
20260903091959 67 309 0.0 0.0 0.00 0.00 0.00 97 1022.6
20260903091457 67 309 0.0 0.0 0.00 0.00 0.00 97 1022.6
20260903090952 67 309 0.0 0.0 0.00 0.00 0.00 97 1022.5
20260903090448 67 322 0.0 0.0 0.00 0.00 0.00 97 1022.3
20260903085946 67 322 0.0 0.0 0.00 0.00 0.00 97 1022.3
20260903085445 67 309 0.0 0.0 0.00 0.00 0.00 97 1022.6
20260903084940 67 309 0.0 0.0 0.00 0.00 0.00 97 1022.5
20260903084438 67 309 0.0 0.0 0.00 0.00 0.00 97 1022.5
20260903083933 67 309 0.0 0.0 0.00 0.00 0.00 97 1022.3
20260903083430 67 269 0.0 0.0 0.00 0.00 0.00 97 1022.3
20260903082929 67 269 0.0 0.0 0.00 0.00 0.00 97 1022.5
20260903082424 67 269 0.0 0.0 0.00 0.00 0.00 97 1022.5
20260903081919 67 269 0.0 0.0 0.00 0.00 0.00 97 1022.3
20260903081414 67 269 0.0 0.0 0.00 0.00 0.00 97 1022.5
20260903080910 67 269 0.0 0.0 0.00 0.00 0.00 97 1022.3
20260903080407 67 269 0.0 0.0 0.02 0.00 0.00 97 1022.6
20260903075901 67 269 0.0 0.0 0.02 0.00 0.00 97 1022.5
20260903075357 67 269 0.0 0.0 0.00 0.00 0.00 97 1022.3
20260903074857 67 269 0.0 0.0 0.00 0.00 0.00 97 1022.3
20260903074351 67 269 0.0 0.0 0.00 0.00 0.00 97 1022.6
20260903073847 67 269 0.0 0.0 0.00 0.00 0.00 97 1022.2
20260903073341 67 269 0.0 0.0 0.00 0.00 0.00 97 1022.3
20260903072838 67 269 0.0 0.0 0.00 0.00 0.00 97 1022.5
20260903072333 67 322 0.0 0.0 0.00 0.00 0.00 97 1022.5
20260903071830 67 322 0.0 0.0 0.00 0.00 0.00 97 1022.2
20260903071326 67 322 0.0 0.0 0.00 0.00 0.00 97 1022.2
20260903070820 68 322 0.0 0.0 0.00 0.00 0.00 97 1022.2
20260903070316 67 322 0.0 0.0 0.00 0.00 0.00 97 1022.1
20260903065811 68 49 0.0 0.0 0.00 0.00 0.00 97 1022.3
20260903065310 68 227 0.0 0.0 0.00 0.00 0.00 97 1022.2
20260903064809 68 309 0.0 0.0 0.00 0.00 0.00 97 1022.3
20260903064305 68 309 0.0 0.0 0.00 0.00 0.00 97 1022.3
20260903063801 68 309 0.0 0.0 0.00 0.00 0.00 97 1022.3
20260903063255 68 309 0.0 0.0 0.00 0.00 0.00 97 1022.2
20260903062751 68 224 0.0 0.0 0.00 0.00 0.00 97 1021.9
20260903062250 68 315 0.0 0.0 0.00 0.00 0.00 97 1022.0
20260903061747 68 315 0.0 0.0 0.00 0.00 0.00 97 1022.3
20260903061245 68 326 0.0 1.0 0.00 0.00 0.00 97 1022.3
20260903060741 68 296 0.0 0.0 0.00 0.00 0.00 97 1022.3
20260903060235 68 235 0.0 0.0 0.00 0.00 0.00 97 1022.5
20260903055732 68 235 0.0 0.0 0.00 0.00 0.00 97 1022.3
20260903055231 68 293 0.0 0.0 0.00 0.00 0.00 97 1022.5
20260903054726 68 293 0.0 0.0 0.00 0.00 0.00 97 1022.7
20260903054221 68 293 0.0 0.0 0.00 0.00 0.00 97 1022.6
20260903053718 68 322 0.0 0.0 0.00 0.00 0.00 97 1022.5
20260903053213 68 322 0.0 0.0 0.00 0.00 0.00 97 1022.6
20260903052709 68 322 0.0 0.0 0.00 0.00 0.00 97 1022.5
20260903052204 68 269 0.0 0.0 0.00 0.00 0.00 97 1022.7
20260903051659 68 310 0.0 0.0 0.00 0.00 0.00 97 1022.5
20260903051154 68 336 0.0 0.0 0.00 0.00 0.00 97 1022.2
20260903050650 68 309 0.0 0.0 0.00 0.00 0.00 97 1022.2
20260903050143 68 309 0.0 0.0 0.00 0.00 0.00 97 1022.2
20260903045644 69 309 0.0 0.0 0.00 0.00 0.00 97 1022.0
20260903045140 69 22 0.0 0.0 0.00 0.00 0.00 97 1022.2
20260903044636 69 322 0.0 0.0 0.00 0.00 0.00 97 1022.0
20260903044131 69 318 1.0 1.0 0.00 0.00 0.00 97 1022.3
20260903043628 69 304 0.0 0.0 0.00 0.00 0.00 97 1022.1
20260903043126 69 304 0.0 0.0 0.00 0.00 0.00 97 1021.9
20260903042621 69 269 0.0 0.0 0.00 0.00 0.00 97 1022.3
20260903042116 69 315 0.0 0.0 0.00 0.00 0.00 97 1022.3
20260903041613 69 315 0.0 0.0 0.00 0.00 0.00 97 1022.6
20260903041108 69 309 0.0 0.0 0.00 0.00 0.00 97 1022.7
20260903040607 69 309 0.0 0.0 0.00 0.00 0.00 97 1022.3
20260903040104 69 309 0.0 1.0 0.00 0.00 0.00 97 1022.5
20260903035558 69 304 0.0 0.0 0.00 0.00 0.00 97 1022.5
20260903035054 70 322 0.0 0.0 0.00 0.00 0.00 97 1022.1
20260903034549 70 269 0.0 0.0 0.00 0.00 0.00 97 1022.6
20260903034044 70 244 1.0 1.0 0.00 0.00 0.00 97 1022.6
20260903033539 70 60 0.0 0.0 0.00 0.00 0.00 97 1022.7
20260903033034 69 343 0.0 0.0 0.00 0.00 0.00 97 1022.7